W6UA-13 Weather Reports


time (UTC)temp
C
wind
direction
speed
KPH
gust
KPH
rain 1hr
cm
rain 24hr
cm
rain mn
cm
humidity
%
barometer
mb
20260504001943 16 271 11.3 25.7 0.00 0.00 0.00 64 1014.6
20260504000443 17 292 8.0 20.9 0.00 0.00 0.00 60 1014.3
20260503234943 17 290 6.4 16.1 0.00 0.00 0.00 60 1014.3
20260503233443 16 243 11.3 22.5 0.00 0.00 0.00 60 1014.2
20260503231943 17 172 11.3 25.7 0.00 0.00 0.00 57 1014.3
20260503230443 17 234 9.7 22.5 0.00 0.00 0.00 54 1014.2
20260503224943 18 225 9.7 22.5 0.00 0.00 0.00 52 1014.2
20260503223443 18 224 8.0 16.1 0.00 0.00 0.00 53 1014.0
20260503221943 18 241 8.0 19.3 0.00 0.00 0.00 54 1014.0
20260503220443 18 180 8.0 16.1 0.00 0.00 0.00 53 1014.2
20260503214943 17 221 9.7 19.3 0.00 0.00 0.00 56 1014.3
20260503213443 18 212 8.0 16.1 0.00 0.00 0.00 56 1014.3
20260503211943 17 250 6.4 17.7 0.00 0.00 0.00 58 1014.2
20260503210443 18 232 6.4 17.7 0.00 0.00 0.00 58 1014.3
20260503204943 17 210 8.0 17.7 0.00 0.00 0.00 60 1014.4
20260503203444 17 224 9.7 17.7 0.00 0.00 0.00 60 1014.6
20260503201944 16 218 11.3 20.9 0.00 0.00 0.00 63 1014.7
20260503200444 17 199 8.0 22.5 0.00 0.00 0.00 60 1014.7
20260503194944 17 223 8.0 24.1 0.00 0.00 0.00 58 1014.8
20260503193444 17 205 8.0 19.3 0.00 0.00 0.00 56 1014.8
20260503191944 17 235 8.0 17.7 0.00 0.00 0.00 56 1014.8
20260503190444 18 207 4.8 14.5 0.00 0.00 0.00 54 1014.8
20260503184944 17 226 4.8 16.1 0.00 0.00 0.00 56 1014.8
20260503183444 16 276 4.8 9.7 0.00 0.00 0.00 55 1014.9
20260503181944 16 186 4.8 14.5 0.00 0.00 0.00 56 1014.9
20260503180444 16 217 6.4 14.5 0.00 0.00 0.00 57 1014.9
20260503174944 15 181 4.8 11.3 0.00 0.00 0.00 60 1014.9
20260503173444 15 138 4.8 8.0 0.00 0.00 0.00 64 1014.9
20260503171944 15 264 6.4 16.1 0.00 0.00 0.00 65 1014.8
20260503170444 15 304 6.4 16.1 0.00 0.00 0.00 71 1014.8
20260503150444 13 233 1.6 4.8 0.00 0.00 0.00 80 1013.7
20260503130444 12 359 0.0 0.0 0.00 0.00 0.00 83 1012.5
20260503110444 12 359 0.0 0.0 0.00 0.00 0.00 81 1012.3
20260503090445 12 359 0.0 3.2 0.00 0.00 0.00 81 1012.3
20260503080445 12 307 1.6 4.8 0.00 0.00 0.00 80 1013.1
20260503071945 12 351 0.0 0.0 0.00 0.00 0.00 80 1012.8
20260503070445 13 359 0.0 0.0 0.00 0.00 0.00 80 1012.7
20260503054945 12 316 1.6 3.2 0.00 0.00 0.00 81 1012.3
20260503053445 12 295 1.6 6.4 0.00 0.00 0.00 82 1012.3
20260503051945 12 295 0.0 3.2 0.00 0.00 0.00 82 1012.3
20260503050445 12 293 0.0 1.6 0.00 0.00 0.00 82 1012.2
20260503044945 12 336 0.0 3.2 0.00 0.00 0.00 82 1012.1
20260503043445 12 274 0.0 4.8 0.00 0.00 0.00 81 1012.0
20260503041945 12 272 0.0 3.2 0.00 0.00 0.00 81 1012.1
20260503040445 12 323 1.6 4.8 0.00 0.00 0.00 81 1012.1
20260503034945 12 345 1.6 3.2 0.00 0.00 0.00 80 1012.0
20260503033445 12 9 1.6 3.2 0.00 0.00 0.00 79 1011.9
20260503031945 13 338 0.0 3.2 0.00 0.00 0.00 79 1012.0
20260503030445 13 148 0.0 0.0 0.00 0.00 0.00 79 1011.8
20260503024945 13 256 1.6 6.4 0.00 0.00 0.00 78 1011.8
20260503023445 13 218 4.8 9.7 0.00 0.00 0.00 77 1011.7
20260503021945 14 214 6.4 19.3 0.00 0.00 0.00 74 1012.0
20260503020445 15 231 4.8 14.5 0.00 0.00 0.00 72 1012.2
20260503014945 15 227 6.4 17.7 0.00 0.00 0.00 70 1012.4
20260503013445 16 204 6.4 14.5 0.00 0.00 0.00 68 1012.6
20260503011945 16 189 6.4 14.5 0.00 0.00 0.00 67 1012.8
20260503010445 17 218 4.8 8.0 0.00 0.00 0.00 65 1012.8
20260503004945 17 285 6.4 16.1 0.00 0.00 0.00 64 1013.1
20260503003445 18 245 4.8 17.7 0.00 0.00 0.00 62 1013.0